Location: Calvatone
(45.1167°N, 10.4333°E)
Time: 18:24:55
(UTC+00:00)

PCSat - Pass Details

Date: 11 December 2023
Orbit: 784 x 791 km, 67.0° (Epoch: 22 February)

Event Time Altitude Azimuth Distance (km) Brightness Sun altitude
Exits shadow 04:24:29 13° 355° (N) 2,186 11.7 -24.1°
Drops below altitude 10° 04:25:23 10° 4° (N) 2,361 12.0 -23.9°
Sets 04:28:48 0° 26° (NNE) 3,295 13.0 -23.3°
